Terminal Aerodrome Forecast
Issued by NWS Grand Junction, CO

Home | Current Version | Previous Version | Text Only | Print | Product List | Glossary On
Versions: 1 2 3 4 5 6 7 8 9 10 11 12
000
FTUS45 KGJT 172334
TAFGJT
TAF
KGJT 172334Z 1800/1824 31007KT P6SM FEW110
     FM180200 07004KT P6SM FEW110
     FM181200 11004KT P6SM SKC
     FM181800 26005KT P6SM SKC=

USA.gov is the U.S. government's official web portal to all federal, state and local government web resources and services.